Regional Weather Roundup
Issued by NWS

Home | Current Version | Previous Version | Graphics & Text | Print | Product List | Glossary On
Versions: 1 2 3 4 5 6 7 8 9 10 11 12 13 14 15 16 17 18 19 20 21 22 23 24 25 26 27
000
ASUS45 KBOU 260607
RWRCO

WEATHER ROUNDUP FOR COLORADO
NATIONAL WEATHER SERVICE DENVER/BOULDER CO
1200 AM MDT WED JUL 26 2017

NOTE: "FAIR" INDICATES FEW OR NO CLOUDS BELOW 12000 FEET WITH NO
SIGNIFICANT WEATHER AND/OR OBSTRUCTIONS TO VISIBILITY.

COZ001>005-013-030-031-260700-
...NORTHWEST COLORADO...

CITY           SKY/WX    TMP DP  RH WIND       PRES   REMARKS
CRAIG          LGT RAIN  63  60  90 CALM      30.26S
HAYDEN         MOCLDY    61  55  82 CALM      30.28S
MEEKER         LGT RAIN  61  59  93 N5        30.28R
RABBIT EARS PA CLOUDY    52  50  93 S7        30.55S FOG
STEAMBOAT SPGS CLOUDY    59  56  90 S6        30.29S
WALDEN         MOCLDY    54  52  94 SE3       30.39S
$$

COZ006>008-011-260700-
...WEST CENTRAL VALLEYS...

CITY           SKY/WX    TMP DP  RH WIND       PRES   REMARKS
GRAND JUNCTION LGT RAIN  67  65  93 E8        30.17R
MONTROSE       MOCLDY    64  63  96 SE9       30.24F
EAGLE          MOCLDY    60  59  96 E3        30.31R
RIFLE          MOCLDY    69  57  65 E5        30.20S
DELTA          LGT RAIN  67  64  87 NW5       30.22R
NUCLA          CLOUDY    63  59  88 E7        30.29S
$$

COZ017>023-064>068-260700-
...SOUTHWEST COLORADO...

CITY           SKY/WX    TMP DP  RH WIND       PRES   REMARKS
DURANGO        CLOUDY    63  59  87 CALM      30.32R
CORTEZ         FAIR      60  59  96 N3        30.27R
PAGOSA SPRINGS FAIR      62  59  93 CALM      30.39F
TELLURIDE      CLOUDY    56  53  91 CALM      30.50R
WOLF CREEK PAS FOG       46  46 100 SW10G17   30.72S VSB<1/4
$$

COZ009-010-012-014-032>034-037-058>063-260700-
...CENTRAL COLORADO...

CITY           SKY/WX    TMP DP  RH WIND       PRES   REMARKS
ASPEN          MOCLDY    56  54  93 CALM      30.36S
BUENA VISTA    FAIR      59  54  84 CALM      30.38F
COPPER MTN     MOCLDY    54  43  66 S10       30.67S
BERTHOUD PASS  MOCLDY    43  30  61 W12       30.70S
COTTONWOOD PAS FAIR      55  50  82 SE6       30.51F
GUNNISON       FAIR      59  53  80 N9        30.38R
KREMMLING      MOCLDY    64  57  77 NW3       30.35R
LEADVILLE      FAIR      48  46  93 NE5       30.51R
MONARCH PASS     N/A     48  45  87 W6        30.76F
SALIDA         FAIR      61  59  92 CALM      30.43F
SUNLIGHT       LGT RAIN  48  46  93 SW9G18    30.59S
WILKERSON PASS FAIR      50  45  81 SW8       30.64S
$$

COZ069>075-260700-
...SAN LUIS VALLEY/SANGRE DE CRISTO MOUNTAINS...

CITY           SKY/WX    TMP DP  RH WIND       PRES   REMARKS
ALAMOSA        MOCLDY    60  58  92 NW3       30.36F
DEL NORTE      FAIR      58  55  91 CALM      30.41F
LA VETA PASS   NOT AVBL
SAGUACHE         N/A    N/A N/A N/A MISG        N/A
$$

COZ035-036-038>040-260700-
...NORTHERN COLORADO FRONT RANGE...

CITY           SKY/WX    TMP DP  RH WIND       PRES   REMARKS
DENVER INTL AP CLOUDY    70  57  63 NW8       30.19R
DMNS CITY PARK   N/A     69  60  74 CALM      30.19S
AURORA         MOCLDY    67  64  91 CALM      30.21R
FRONT RANGE AP MOCLDY    66  61  82 W6        30.20S
ERIE MUNI ARPT FAIR      66  64  90 N7        30.18S
BOULDER MUN AP FAIR      68  61  77 CALM      30.19R
CENTENNIAL     FAIR      66  61  84 E3        30.21F
BROOMFIELD     MOCLDY    68  61  77 W3        30.21F
FORT COLLINS   FAIR      68  60  75 N7        30.19R
LONGMONT       MOCLDY    70  61  73 CALM      30.20S
$$

COZ041-046-047-076>085-087-088-260700-
...PIKES PEAK/PALMER DIVIDE AND SOUTHERN FOOTHILLS...

CITY           SKY/WX    TMP DP  RH WIND       PRES   REMARKS
COLO. SPRINGS  MOCLDY    70  57  63 N7        30.24S
A. F. ACADEMY  CLOUDY    65  55  70 N10       30.25S
SCHRIEVER AFB  MOCLDY    68  55  63 N8        30.25R
CHEYENNE MTN   MOCLDY    66  56  71 S9        30.25R
ELLICOTT       MIX PCPN N/A N/A N/A N7        30.23R
FALCON           N/A     65  54  65 NW10G16   30.29F
FORT CARSON    MOCLDY    68  60  75 SE6       30.22R
LIMON          MOCLDY    66  61  84 NW9       30.17R
MONUMENT HILL  CLOUDY    59  55  88 W3        30.32S
CANON CITY     RAIN      70  64  83 W5        30.19F
WALSENBURG     FAIR      70  61  73 CALM      30.23F
TRINIDAD       FAIR      72  58  61 NW6       30.21R
$$

COZ042>045-048>051-090-091-260700-
...NORTHEAST COLORADO...

CITY           SKY/WX    TMP DP  RH WIND       PRES   REMARKS
GREELEY ARPT   FAIR      69  59  70 W7        30.16S
AKRON          FAIR      70  59  68 W14       30.07F
BURLINGTON     FAIR      74  61  63 NW8       30.03F
WRAY           NOT AVBL
YUMA           FAIR      70  57  64 W10       30.02F
STERLING       FAIR      77  57  50 NW9       30.02R
HOLYOKE        FAIR      72  64  78 SW8       29.97F
FORT MORGAN    FAIR      69  57  65 W8        30.11S
$$

COZ086-089-092>099-260700-
...SOUTHEAST COLORADO...

CITY           SKY/WX    TMP DP  RH WIND       PRES   REMARKS
PUEBLO         FAIR      72  61  68 N13       30.14R
LA JUNTA       FAIR      76  60  57 NW13      30.09R
LAMAR          FAIR      73  65  75 CALM      29.99R
SPRINGFIELD      N/A     79  57  46 S17       30.06R
$$




USA.gov is the U.S. government's official web portal to all federal, state and local government web resources and services.